Overview Statistics Trail Chart Weather Telemetry Raw packets
 

This is the latest recevied weather packets stored in our database for station/object KF0ZH. If no packets are shown the sender has not sent any weather packets the latest 10 day(s).

<< 82 83 84 85 86 87 88 >>
Time Temp. Humidity Pressure Rain* Wind** Luminosity Snow
1787858346 25.56° C 55% 1016.4 hPa 0 mm 2.68 m/s, 338° - -
1787858045 25° C 57% 1016.5 hPa 0 mm 4.02 m/s, 310° - -
1787857747 25.56° C 58% 1016.5 hPa 0 mm 1.79 m/s, 15° - -
1787857445 25.56° C 58% 1016.5 hPa 0 mm 2.68 m/s, 319° - -
1787857145 25.56° C 56% 1016.6 hPa 0 mm 0 m/s - -
1787856846 25.56° C 57% 1016.6 hPa 0 mm 0 m/s - -
1787856545 25.56° C 60% 1016.6 hPa 0 mm 0 m/s - -
1787856245 25.56° C 59% 1016.5 hPa 0 mm 0 m/s - -
1787855645 25° C 60% 1016.6 hPa 0 mm 1.79 m/s, 1° - -
1787855346 25° C 57% 1016.7 hPa 0 mm 1.79 m/s, 274° - -
1787854745 25° C 62% 1016.6 hPa 0 mm 1.79 m/s, 340° - -
1787854446 25° C 61% 1016.6 hPa 0 mm 0 m/s - -
1787854406 25° C 60% 1016.7 hPa 0 mm 0 m/s - -
1787854145 25° C 60% 1016.7 hPa 0 mm 0 m/s - -
1787853546 25° C 61% 1016.7 hPa 0 mm 1.79 m/s, 241° - -
1787853246 24.44° C 59% 1016.8 hPa 0 mm 2.68 m/s, 307° - -
1787852945 24.44° C 60% 1016.9 hPa 0 mm 1.34 m/s, 344° - -
1787852645 24.44° C 63% 1016.9 hPa 0 mm 0 m/s - -
1787852345 24.44° C 65% 1016.9 hPa 0 mm 2.68 m/s, 341° - -
1787852045 23.89° C 63% 1016.9 hPa 0 mm 0 m/s - -
1787851747 24.44° C 63% 1016.9 hPa 0 mm 2.68 m/s, 357° - -
1787851445 23.89° C 65% 1016.9 hPa 0 mm 0 m/s - -
1787851147 23.89° C 64% 1016.9 hPa 0 mm 3.58 m/s, 340° - -
1787850845 23.89° C 62% 1017 hPa 0 mm 1.34 m/s, 29° - -
1787850545 23.89° C 67% 1017 hPa 0 mm 1.79 m/s, 307° - -

* Rain latest hour (hover to see other rain measurements)
** Current wind speed in m/s (hover to see current wind gust speed)